Home > Weather > Eureka > Past weeks

Flag for Canada Past Weather in Eureka, Nunavut, Canada — Yesterday and Last 2 Weeks

Now
23 °F

Partly sunny.


Feels Like: 10 °F
Forecast: 16 / 23 °F
Wind: 15 mph from West

Location: Eureka

Current Time: May 29, 2016 at 10:12:35 PM

Latest Report: May 29, 2016 at 9:00 PM


Visibility: 15 mi

Pressure: 30.24 "Hg

Humidity: 86%

Dew Point: 19 °F

Location of EurekaLocation

Past Weather in Eureka — Graph

°F

Eureka Temperature Yesterday

Maximum temperature yesterday: 30 °F (at 3:00 PM)
Minimum temperature yesterday: 25 °F (at 1:00 AM)
Average temperature yesterday: 27 °F

High & Low Weather Summary for the Past Weeks

 TemperatureHumidityPressure
High30 °F (May 27, 3:00 PM)93% (May 19, 11:00 AM)30.34 "Hg (May 19, 11:00 AM)
Low9 °F (May 17, 7:00 AM)59% (May 27, 3:00 PM)29.62 "Hg (May 20, 4:00 PM)
Average21 °F79%29.98 "Hg
* Reported May 14 9:00 PM — May 29 9:00 PM, Eureka, Weather by CustomWeather, © 2016

Note: Actual official high and low records may vary slightly from our data, if they occured in-between our weather recording intervals... More about our weather records

Advertising

Eureka Weather History for the Previous 24 Hours

Scroll right to see more
 ConditionsComfort  
Time TempWeatherWind HumidityBarometerVisibility
9:00 PM
Sun, May 29
23 °FPartly sunny.15 mph86%30.24 "Hg15 mi
8:00 PM25 °FPartly sunny.13 mph80%30.25 "Hg15 mi
7:00 PM25 °FPassing clouds.14 mph80%30.26 "Hg15 mi
6:00 PM25 °FPassing clouds.12 mph80%30.26 "Hg15 mi
5:00 PM25 °FPassing clouds.17 mph80%30.27 "Hg15 mi
4:00 PM25 °FPassing clouds.13 mph80%30.26 "Hg15 mi
3:00 PM25 °FPassing clouds.14 mph80%30.26 "Hg15 mi
2:00 PM27 °FScattered clouds.9 mph74%30.27 "Hg15 mi
1:00 PM25 °FScattered clouds.14 mph80%30.27 "Hg15 mi
12:00 PM25 °FBroken clouds.15 mph80%30.27 "Hg15 mi
11:00 AM25 °FPartly sunny.8 mph74%30.26 "Hg15 mi
10:00 AM25 °FPassing clouds.10 mph74%30.27 "Hg15 mi
9:00 AM25 °FPartly sunny.13 mph74%30.25 "Hg15 mi
8:00 AM27 °FPassing clouds.5 mph69%30.25 "Hg15 mi
7:00 AM23 °FPartly sunny.3 mph80%30.25 "Hg15 mi
6:00 AM23 °FBroken clouds.2 mph80%30.24 "Hg15 mi
5:00 AM25 °FBroken clouds.14 mph74%30.23 "Hg15 mi
4:00 AM25 °FPartly sunny.8 mph74%30.22 "Hg15 mi
3:00 AM25 °FPartly sunny.9 mph80%30.21 "Hg15 mi
2:00 AM27 °FPartly sunny.13 mph74%30.21 "Hg15 mi
1:00 AM27 °FPartly sunny.14 mph80%30.19 "Hg15 mi
10:00 PM
Sat, May 28
27 °FBroken clouds.10 mph74%30.18 "Hg15 mi
Weather by CustomWeather, © 2016

See weather overviewHow to use our weather pages